AirNav   SIMCOM
 
 318 users online  

MS20 Mach 1 Jet Port Airport
Brandon, Mississippi, USA


FAA INFORMATION EFFECTIVE 14 SEPTEMBER 2017

Location

FAA Identifier: MS20
Lat/Long: 32-27-16.0000N / 089-54-16.0000W
32-27.266667N / 089-54.266667W
32.4544444 / -89.9044444
(estimated)
Elevation: 377 ft. / 115 m (estimated)
From city: 10 miles N of BRANDON, MS
Time zone: UTC -5 (UTC -6 during Standard Time)
Zip code: 39145

Airport Operations

Airport use: Private use. Permission required prior to landing
Activation date: 03/2011
Control tower: no
ARTCC: MEMPHIS CENTER
FSS: GREENWOOD FLIGHT SERVICE STATION
Attendance: MON-FRI 0800-1700
Segmented circle: no

Airport Communications

WX AWOS-3 at MBO (10 nm W): 119.125 (601-605-8137)
WX ASOS at JAN (12 nm SW): PHONE 601-932-2822
WX ASOS at HKS (18 nm SW): 120.625 (601-354-4037)

Nearby radio navigation aids

VOR radial/distance  VOR name  Freq  Var
MHZr084/10.0MAGNOLIA VORTAC113.2001W

 
NDB name  Hdg/Dist  Freq  Var  ID
ALLEN078/11.236501WJA .--- .-

Airport Services

Runway Information

Runway 18/36

Dimensions: 1200 x 50 ft. / 366 x 15 m
Surface: turf
RUNWAY 18  RUNWAY 36
Traffic pattern: leftleft

Airport Ownership and Management from official FAA records

Ownership: Privately-owned
Owner: CARL DAVIS
200 JETPORT
BRANDON, MS 39047
Phone 601-936-0777
Manager: CARL DAVIS
200 JETPORT
BRANDON, MS 39047
Phone 601-936-0777

Instrument Procedures

There are no published instrument procedures at MS20.

Some nearby airports with instrument procedures:

KMBO - Bruce Campbell Field Airport (10 nm W)
KJAN - Jackson-Medgar Wiley Evers International Airport (12 nm SW)
KHKS - Hawkins Field Airport (18 nm SW)
KJVW - John Bell Williams Airport (27 nm W)
17M - Magee Municipal Airport (36 nm S)
 
Loc | Ops | Rwys | IFR | FBO | Links
Com | Nav | Svcs | Stats | Notes


 
Aerial photo
No photo
 
Sectional chart

 
Airport distance calculator
Flying to Mach 1 Jet Port Airport? Find the distance to fly.

From to MS20

Sunrise and sunset
Times for 21-Sep-2017
 Local
(UTC-5)
 Zulu
(UTC)
Morning civil twilight06:2411:24
Sunrise06:4811:48
Sunset18:5723:57
Evening civil twilight19:2200:22

Current date and time
Zulu (UTC)  21-Sep-2017 09:25:34
Local (UTC-5)  21-Sep-2017 04:25:34
 
METAR
KMBO 
10nm W 
210855Z AUTO 00000KT 2SM CLR 19/19 A3002 RMK AO2 PWINO
KJAN 
12nm SW 
210854Z AUTO 00000KT 6SM BR CLR 21/20 A3002 RMK AO2 SLP160 T02060200 $
KHKS 
17nm SW 
210853Z AUTO 00000KT 7SM CLR 21/21 A3002 RMK AO2 SLP158 T02110211 53002
TAF
KJAN 
12nm SW 
210528Z 2106/2206 00000KT 4SM BR FEW100 FM211100 00000KT 3SM BR FEW020 FM211400 VRB03KT P6SM SCT035 FM212100 08005KT P6SM VCTS SCT040CB BKN060 FM220000 10003KT P6SM SCT100
KHKS 
17nm SW 
210528Z 2106/2206 00000KT 5SM BR FEW100 FM211000 00000KT 3SM BR FEW020 FM211400 VRB03KT P6SM SCT035 FM212100 08005KT P6SM VCTS SCT040CB BKN060 FM220000 10003KT P6SM SCT100
NOTAMs
Click for the latest NOTAMs
NOTAMs are issued by the DoD/FAA and will open in a separate window not controlled by AirNav.

 

 
 

Would you like to see your business listed on this page?

 If your business provides an interesting product or service to pilots, flight crews, aircraft, or users of the Mach 1 Jet Port Airport, you should consider listing it here.  To start the listing process, click on the button below
 
Add a business
 

Other Pages about Mach 1 Jet Port Airport

Update a link
 
Copyright © AirNav, LLC. All rights reserved. Privacy Policy  Contact